Location: Bishop�s Knoyle
(51.0728°N, 2.1714°W)
Time: 16:14:09
(UTC+00:00)

BEESAT 2 - Pass Details

Date: 28 November 2021
Orbit: 498 x 514 km, 64.9° (Epoch: 17 January)

Event Time Altitude Azimuth Distance (km) Brightness Sun altitude
Exits shadow 06:01:37 12° 344° (NNW) 1,642 ? -15.7°
Maximum altitude 06:04:04 19° 26° (NNE) 1,278 ? -15.3°
Drops below altitude 10° 06:06:54 10° 73° (ENE) 1,737 ? -14.9°
Sets 06:09:36 0° 92° (E) 2,634 ? -14.5°
